Weather History for Carlsbad, CA

Change the Weather History Date:

Thursday, November 24, 2011

  Actual Average Record
Temperature  
Mean Temperature 56 °F -  
Max Temperature 61 °F 63 °F 73 °F (2007)
Min Temperature 51 °F 47 °F 44 °F (1999)
Degree Days  
Heating Degree Days 8    
Growing Degree Days 6 (Base 50)    
Moisture  
Dew Point 48 °F    
Average Humidity 73    
Maximum Humidity 86    
Minimum Humidity 54    
Precipitation  
Precipitation 0.00 in - - ()
Sea Level Pressure  
Sea Level Pressure 30.02 in    
Wind  
Wind Speed 4 mph (SE)    
Max Wind Speed 9 mph    
Max Gust Speed -    
Visibility 10 miles    
Events      
Averages and records for this station are not official NWS values.
T = Trace of Precipitation, MM = Missing Value Source: NWS Daily Summary

Daily Weather History Graph

Daily Weather History Graph

Search for Another Location

Airport:

Trip Planner

Search our weather history database for the weather conditions in past years. The results will help you decide how hot, cold, wet, or windy it might be!

Date:

Astronomy

Nov. 24, 2011 Rise Set
Actual Time 6:28 AM PST 4:43 PM PST
Civil Twilight 6:01 AM PST 5:10 PM PST
Nautical Twilight 5:31 AM PST 5:40 PM PST
Astronomical Twilight 5:01 AM PST 6:10 PM PST
Moon 5:50 AM PST (11/24) 4:20 PM PST (11/24)
Length of Visible Light 11h 08m
Length of Day
10h 15m
Waning Crescent, 0% of the Moon is Illuminated
Nov 24
Waning Crescent
Nov 24
New
Dec 2
First Quarter
Dec 10
Full
Dec 17
Last Quarter

Hourly Weather History & Observations

Time (PST) Temp. Dew Point Humidity Pressure Visibility Wind Dir Wind Speed Gust Speed Precip Events Conditions
12:53 AM 55.9 °F 51.1 °F 84% 29.97 in 10.0 mi SE 3.5 mph - N/A   Mostly Cloudy
1:53 AM 55.0 °F 50.0 °F 83% 29.99 in 10.0 mi SSE 3.5 mph - N/A   Mostly Cloudy
2:53 AM 55.0 °F 50.0 °F 83% 29.98 in 10.0 mi SE 3.5 mph - N/A   Overcast
3:53 AM 54.0 °F 48.9 °F 83% 29.97 in 10.0 mi Calm Calm - N/A   Clear
4:53 AM 53.6 °F 48.2 °F 82% 29.98 in 10.0 mi ESE 5.8 mph - N/A   Overcast
5:53 AM 54.0 °F 48.9 °F 83% 29.98 in 10.0 mi East 4.6 mph - N/A   Overcast
6:53 AM 55.0 °F 48.0 °F 77% 29.97 in 10.0 mi East 6.9 mph - N/A   Overcast
7:53 AM 57.0 °F 48.0 °F 72% 30.00 in 8.0 mi East 4.6 mph - N/A   Overcast
8:53 AM 57.9 °F 46.9 °F 67% 30.02 in 10.0 mi ESE 4.6 mph - N/A   Overcast
9:53 AM 59.0 °F 46.0 °F 62% 30.04 in 10.0 mi East 3.5 mph - N/A   Overcast
10:53 AM 60.1 °F 45.0 °F 57% 30.04 in 10.0 mi Calm Calm - N/A   Overcast
11:53 AM 61.0 °F 44.1 °F 54% 30.02 in 10.0 mi West 5.8 mph - N/A   Overcast
12:53 PM 61.0 °F 45.0 °F 56% 30.01 in 10.0 mi SW 8.1 mph - N/A   Mostly Cloudy
1:53 PM 61.0 °F 46.9 °F 60% 30.00 in 10.0 mi WSW 9.2 mph - N/A   Clear
2:53 PM 60.1 °F 48.9 °F 67% 30.01 in 10.0 mi WSW 6.9 mph - N/A   Partly Cloudy
3:53 PM 60.1 °F 48.9 °F 67% 30.02 in 10.0 mi West 5.8 mph - N/A   Overcast
4:53 PM 59.0 °F 48.2 °F 67% 30.03 in 10.0 mi Calm Calm - N/A   Mostly Cloudy
5:53 PM 57.9 °F 48.9 °F 72% 30.05 in 10.0 mi NW 3.5 mph - N/A   Overcast
6:53 PM 57.9 °F 48.9 °F 72% 30.06 in 10.0 mi NNW 3.5 mph - N/A   Overcast
8:53 PM 55.9 °F 48.9 °F 77% 30.08 in 10.0 mi Calm Calm - N/A   Clear
9:53 PM 55.0 °F 48.9 °F 80% 30.10 in 10.0 mi Calm Calm - N/A   Clear
10:53 PM 52.0 °F 48.0 °F 86% 30.11 in 10.0 mi Calm Calm - N/A   Clear
11:53 PM 51.8 °F 46.4 °F 82% 30.12 in 10.0 mi Calm Calm - N/A   Clear